CW1988 Weather Reports


Display with metric or nautical units.
time (UTC)temp
F
wind
direction
speed
MPH
gust
MPH
rain 1hr
in
rain 24hr
in
rain mn
in
humidity
%
barometer
mb
20260902024908 77 145 0.0 0.0 0.00 0.00 0.00 90 1014.9
20260902024358 77 145 0.0 0.0 0.00 0.00 0.00 90 1014.9
20260902023853 77 145 0.0 0.0 0.00 0.00 0.00 90 1015.0
20260902023348 77 145 0.0 0.0 0.00 0.00 0.00 90 1015.0
20260902022847 77 145 0.0 0.0 0.00 0.00 0.00 90 1014.9
20260902022342 77 145 0.0 0.0 0.00 0.00 0.00 90 1015.0
20260902021838 77 145 0.0 0.0 0.00 0.00 0.00 90 1015.0
20260902021332 77 145 0.0 0.0 0.00 0.00 0.00 90 1015.1
20260902020828 77 145 0.0 0.0 0.00 0.00 0.00 90 1015.1
20260902020325 77 145 0.0 0.0 0.00 0.00 0.00 90 1015.4
20260902015819 77 145 0.0 0.0 0.00 0.00 0.00 89 1015.5
20260902015315 77 145 0.0 0.0 0.00 0.00 0.00 90 1015.2
20260902014811 77 145 0.0 0.0 0.00 0.00 0.00 90 1015.2
20260902014308 77 145 0.0 0.0 0.00 0.00 0.00 90 1015.1
20260902013806 77 145 0.0 0.0 0.00 0.00 0.00 90 1015.1
20260902013302 77 145 0.0 0.0 0.00 0.00 0.00 90 1015.1
20260902012757 77 145 0.0 0.0 0.00 0.00 0.00 90 1015.1
20260902012253 77 145 0.0 0.0 0.00 0.00 0.00 89 1014.8
20260902011748 77 145 0.0 0.0 0.00 0.00 0.00 89 1014.8
20260902011248 77 145 0.0 0.0 0.00 0.00 0.00 89 1014.7
20260902010741 77 145 0.0 0.0 0.00 0.00 0.00 89 1014.8
20260902010237 77 145 0.0 0.0 0.00 0.00 0.00 89 1014.6
20260902005735 77 145 0.0 0.0 0.00 0.00 0.00 89 1014.7
20260902005231 77 145 0.0 0.0 0.00 0.00 0.00 88 1014.8
20260902004731 77 145 0.0 0.0 0.00 0.00 0.00 88 1014.6
20260902004226 78 145 0.0 0.0 0.00 0.00 0.00 88 1014.6
20260902003716 78 145 0.0 0.0 0.00 0.00 0.00 87 1014.7
20260902003211 78 145 0.0 0.0 0.00 0.00 0.00 87 1014.6
20260902002706 78 145 0.0 0.0 0.00 0.00 0.00 87 1014.6
20260902002206 78 145 0.0 0.0 0.00 0.00 0.00 87 1014.5
20260902001702 78 145 0.0 0.0 0.00 0.00 0.00 87 1014.8
20260902001201 78 145 0.0 0.0 0.00 0.00 0.00 86 1014.7
20260902000657 79 145 0.0 0.0 0.00 0.00 0.00 86 1014.6
20260902000152 79 145 0.0 0.0 0.00 0.00 0.00 86 1014.7
20260901235651 79 145 0.0 0.0 0.00 0.00 0.00 86 1014.6
20260901235147 79 145 0.0 0.0 0.00 0.00 0.00 86 1014.8
20260901234646 79 145 0.0 0.0 0.00 0.00 0.00 85 1014.5
20260901234141 79 145 0.0 0.0 0.00 0.00 0.00 84 1014.6
20260901233636 79 145 0.0 0.0 0.00 0.00 0.00 84 1014.6
20260901233132 79 145 0.0 0.0 0.00 0.00 0.00 85 1014.6
20260901232626 79 145 0.0 0.0 0.00 0.00 0.00 85 1014.8
20260901232121 79 145 0.0 0.0 0.00 0.00 0.00 85 1014.8
20260901231618 79 145 0.0 0.0 0.00 0.00 0.00 84 1014.7
20260901231114 79 145 0.0 0.0 0.00 0.00 0.00 84 1014.4
20260901230609 79 145 0.0 0.0 0.00 0.00 0.00 85 1014.0
20260901230109 80 145 0.0 0.0 0.00 0.00 0.00 85 1013.6
20260901225604 80 145 0.0 0.0 0.00 0.00 0.00 86 1014.0
20260901225104 80 145 0.0 0.0 0.00 0.00 0.00 84 1014.3
20260901224600 80 145 0.0 0.0 0.00 0.00 0.00 83 1014.5
20260901224056 80 145 0.0 0.0 0.00 0.00 0.00 84 1014.3
20260901223551 80 145 0.0 0.0 0.00 0.00 0.00 84 1014.7
20260901223047 80 145 0.0 0.0 0.00 0.00 0.00 85 1014.9
20260901222543 80 145 0.0 0.0 0.00 0.00 0.00 84 1015.2
20260901222038 80 145 0.0 0.0 0.00 0.00 0.00 83 1015.0
20260901221534 80 145 0.0 0.0 0.00 0.00 0.00 83 1014.9
20260901221029 80 145 0.0 0.0 0.00 0.00 0.00 81 1015.0
20260901220529 81 145 0.0 0.0 0.00 0.00 0.00 79 1014.9
20260901220028 81 147 0.0 0.0 0.00 0.00 0.00 74 1014.8
20260901215526 81 147 0.0 0.0 0.00 0.00 0.00 72 1014.9
20260901215020 82 147 0.0 0.0 0.00 0.00 0.00 71 1015.1
20260901214519 82 147 0.0 0.0 0.00 0.00 0.00 71 1014.9
20260901214014 82 147 0.0 0.0 0.00 0.00 0.00 70 1015.0
20260901213513 82 147 0.0 0.0 0.00 0.00 0.00 70 1015.2
20260901213008 82 147 0.0 0.0 0.00 0.00 0.00 72 1015.1
20260901212502 82 147 0.0 0.0 0.00 0.00 0.00 72 1014.9
20260901211954 82 147 0.0 0.0 0.00 0.00 0.00 76 1015.2
20260901211449 83 147 0.0 0.0 0.00 0.00 0.00 76 1015.0
20260901210945 83 147 0.0 0.0 0.00 0.00 0.00 75 1015.0
20260901210440 83 147 0.0 0.0 0.00 0.00 0.00 76 1014.9
20260901205936 84 147 0.0 0.0 0.00 0.00 0.00 76 1014.9
20260901205430 84 147 0.0 0.0 0.00 0.00 0.00 79 1014.9
20260901204925 84 147 0.0 0.0 0.00 0.00 0.00 82 1014.9
20260901204422 84 136 0.0 0.0 0.00 0.00 0.00 82 1015.0
20260901203921 84 136 0.0 0.0 0.00 0.00 0.00 82 1015.0
20260901203416 84 135 0.0 0.0 0.00 0.00 0.00 82 1015.0
20260901202911 84 135 0.0 0.0 0.00 0.00 0.00 82 1015.1
20260901202406 84 136 0.0 0.0 0.00 0.00 0.00 81 1015.1
20260901201902 83 146 0.0 0.0 0.00 0.00 0.00 81 1014.9
20260901201402 84 146 0.0 0.0 0.00 0.00 0.00 80 1015.3
20260901200855 84 146 0.0 0.0 0.00 0.00 0.00 79 1015.2
20260901200346 84 145 0.0 0.0 0.00 0.00 0.00 77 1015.4
20260901195844 85 145 2.0 2.0 0.00 0.00 0.00 76 1015.7
20260901195342 86 145 0.0 0.0 0.00 0.00 0.00 73 1015.3
20260901194838 86 145 0.0 0.0 0.00 0.00 0.00 73 1015.2
20260901194332 86 145 1.0 1.0 0.00 0.00 0.00 74 1015.1
20260901193829 87 145 0.0 0.0 0.00 0.00 0.00 75 1015.0
20260901193327 88 145 0.0 0.0 0.00 0.00 0.00 74 1015.2
20260901192822 89 145 0.0 0.0 0.00 0.00 0.00 71 1015.3
20260901192318 90 145 0.0 0.0 0.00 0.00 0.00 72 1015.2
20260901191814 91 146 0.0 0.0 0.00 0.00 0.00 71 1015.3
20260901191309 91 146 0.0 1.0 0.00 0.00 0.00 72 1015.2
20260901190806 90 146 0.0 0.0 0.00 0.00 0.00 72 1015.3
20260901190300 90 146 0.0 0.0 0.00 0.00 0.00 69 1015.2
20260901185758 91 145 0.0 0.0 0.00 0.00 0.00 66 1015.2
20260901185257 92 146 0.0 0.0 0.00 0.00 0.00 65 1015.2
20260901184753 93 146 0.0 0.0 0.00 0.00 0.00 66 1015.0
20260901184247 93 146 0.0 0.0 0.00 0.00 0.00 66 1015.1
20260901183743 92 146 0.0 0.0 0.00 0.00 0.00 69 1015.4
20260901183242 92 146 0.0 0.0 0.00 0.00 0.00 66 1015.2
20260901182739 92 146 0.0 0.0 0.00 0.00 0.00 68 1015.3
20260901182232 91 146 0.0 0.0 0.00 0.00 0.00 69 1015.2
20260901181727 92 146 0.0 0.0 0.00 0.00 0.00 69 1015.1
20260901181222 91 146 0.0 0.0 0.00 0.00 0.00 69 1015.3
20260901180720 91 146 0.0 0.0 0.00 0.00 0.00 69 1015.2
20260901180220 90 146 0.0 0.0 0.00 0.00 0.00 70 1015.1
20260901175719 89 146 0.0 0.0 0.00 0.00 0.00 72 1015.1
20260901175214 90 145 0.0 0.0 0.00 0.00 0.00 70 1015.3
20260901174709 90 145 0.0 0.0 0.00 0.00 0.00 68 1015.1
20260901174205 90 146 0.0 0.0 0.00 0.00 0.00 71 1015.5
20260901173700 90 146 0.0 0.0 0.00 0.00 0.00 71 1015.6
20260901173155 90 146 0.0 0.0 0.00 0.00 0.00 70 1015.5
20260901172651 90 146 0.0 0.0 0.00 0.00 0.00 73 1015.5
20260901172149 89 140 0.0 0.0 0.00 0.00 0.00 73 1015.6
20260901171643 88 140 0.0 0.0 0.00 0.00 0.00 77 1015.6
20260901171142 87 139 0.0 0.0 0.00 0.00 0.00 77 1015.8
20260901170642 87 139 0.0 0.0 0.00 0.00 0.00 77 1015.5
20260901170137 88 139 0.0 0.0 0.00 0.00 0.00 76 1015.8
20260901165636 88 139 0.0 0.0 0.00 0.00 0.00 75 1015.7
20260901165131 88 139 0.0 0.0 0.00 0.00 0.00 77 1015.6
20260901164627 87 138 0.0 0.0 0.00 0.00 0.00 75 1015.5
20260901164122 88 139 0.0 0.0 0.00 0.00 0.00 75 1015.7
20260901163618 87 139 0.0 0.0 0.00 0.00 0.00 78 1015.6
20260901163116 86 139 0.0 0.0 0.00 0.00 0.00 81 1015.8
20260901162612 86 138 0.0 0.0 0.00 0.00 0.00 81 1015.7
20260901162111 86 138 0.0 0.0 0.00 0.00 0.00 80 1016.2
20260901161610 85 137 0.0 0.0 0.00 0.00 0.00 82 1016.0
20260901161104 84 137 0.0 0.0 0.00 0.00 0.00 84 1016.0
20260901160601 84 131 0.0 0.0 0.00 0.00 0.00 83 1016.1
20260901160056 83 127 0.0 1.0 0.00 0.00 0.00 84 1016.1
20260901155554 83 126 0.0 0.0 0.00 0.00 0.00 84 1016.1
20260901155051 83 152 0.0 0.0 0.00 0.00 0.00 84 1016.2
20260901154550 83 152 0.0 0.0 0.00 0.00 0.00 84 1015.8
20260901154045 83 152 0.0 0.0 0.00 0.00 0.00 85 1015.8
20260901153546 83 152 0.0 0.0 0.00 0.00 0.00 84 1016.0
20260901153040 83 152 0.0 0.0 0.00 0.00 0.00 84 1016.0
20260901152534 83 152 0.0 0.0 0.00 0.00 0.00 84 1015.8
20260901152033 83 152 0.0 0.0 0.00 0.00 0.00 85 1015.7
20260901151529 83 152 0.0 0.0 0.00 0.00 0.00 84 1016.0
20260901151028 83 152 0.0 0.0 0.00 0.00 0.00 84 1016.0
20260901150526 82 153 0.0 0.0 0.00 0.00 0.00 85 1015.8
20260901150025 82 152 0.0 0.0 0.00 0.00 0.00 86 1015.8
20260901145519 81 152 0.0 0.0 0.00 0.00 0.00 87 1015.8
20260901145018 81 152 0.0 0.0 0.00 0.00 0.00 88 1016.0
20260901144514 80 152 0.0 0.0 0.00 0.00 0.00 89 1016.2
20260901144009 80 152 0.0 0.0 0.00 0.00 0.00 89 1015.8
20260901143505 80 152 0.0 0.0 0.00 0.00 0.00 89 1015.8
20260901143001 80 152 0.0 0.0 0.00 0.00 0.00 88 1015.8
20260901142455 80 152 0.0 0.0 0.00 0.00 0.00 88 1015.7
20260901141950 80 152 0.0 0.0 0.00 0.00 0.00 89 1015.7
20260901141445 80 152 0.0 0.0 0.00 0.00 0.00 88 1016.0
20260901140940 80 152 0.0 0.0 0.00 0.00 0.00 88 1015.8
20260901140438 80 152 0.0 0.0 0.00 0.00 0.00 90 1015.8
20260901135933 79 152 0.0 0.0 0.00 0.00 0.00 89 1016.0
20260901135427 79 152 0.0 0.0 0.00 0.00 0.00 90 1016.0
20260901134923 79 152 0.0 0.0 0.00 0.00 0.00 90 1015.7
20260901134418 78 152 0.0 0.0 0.00 0.00 0.00 91 1015.7
20260901133918 78 152 0.0 0.0 0.00 0.00 0.00 91 1015.8
20260901133412 78 152 0.0 0.0 0.00 0.00 0.00 91 1015.7
20260901132911 78 152 0.0 0.0 0.00 0.00 0.00 92 1016.0
20260901132406 77 152 0.0 0.0 0.00 0.00 0.00 92 1015.8
20260901131904 77 152 0.0 0.0 0.00 0.00 0.00 93 1015.7
20260901131404 76 152 0.0 0.0 0.00 0.00 0.00 94 1015.8
20260901130900 76 152 0.0 0.0 0.00 0.00 0.00 95 1015.6
20260901130354 76 152 0.0 0.0 0.00 0.00 0.00 95 1015.7
20260901125852 75 152 0.0 0.0 0.00 0.00 0.00 96 1016.0
20260901125351 75 152 0.0 0.0 0.00 0.00 0.00 96 1015.8
20260901124846 75 152 0.0 0.0 0.00 0.00 0.00 97 1015.8
20260901124342 75 152 0.0 0.0 0.00 0.00 0.00 97 1015.8
20260901123841 74 152 0.0 0.0 0.00 0.00 0.00 97 1015.8
20260901123336 74 152 0.0 0.0 0.00 0.00 0.00 98 1015.6
20260901122834 74 152 0.0 0.0 0.00 0.00 0.00 98 1015.7
20260901122329 74 152 0.0 0.0 0.00 0.00 0.00 98 1015.6
20260901121828 74 152 0.0 0.0 0.00 0.00 0.00 98 1015.7
20260901121324 73 152 0.0 0.0 0.00 0.00 0.00 98 1015.6
20260901120819 73 152 0.0 0.0 0.00 0.00 0.00 98 1015.5
20260901120313 73 152 0.0 0.0 0.00 0.00 0.00 98 1015.5
20260901115809 72 152 0.0 0.0 0.00 0.00 0.00 98 1015.5
20260901115306 72 152 0.0 0.0 0.00 0.00 0.00 98 1015.2
20260901114802 72 152 0.0 0.0 0.00 0.00 0.00 98 1015.3
20260901114257 72 153 0.0 0.0 0.00 0.00 0.00 98 1015.1
20260901113755 72 153 0.0 0.0 0.00 0.00 0.00 98 1015.3
20260901113249 72 153 0.0 0.0 0.00 0.00 0.00 98 1014.9
20260901112744 72 153 0.0 0.0 0.00 0.00 0.00 98 1015.0
20260901112244 72 153 0.0 0.0 0.00 0.00 0.00 98 1014.9
20260901111739 72 153 0.0 0.0 0.00 0.00 0.00 98 1014.8
20260901111237 72 153 0.0 0.0 0.00 0.00 0.00 98 1014.7
20260901110732 72 153 0.0 0.0 0.00 0.00 0.00 98 1014.7
20260901110227 72 153 0.0 0.0 0.00 0.00 0.00 98 1014.7
20260901105724 72 153 0.0 0.0 0.00 0.00 0.00 98 1014.6
20260901105223 72 153 0.0 0.0 0.00 0.00 0.00 98 1014.8
20260901104720 72 153 0.0 0.0 0.00 0.00 0.00 98 1014.8
20260901104215 72 153 0.0 0.0 0.00 0.00 0.00 98 1014.6
20260901103714 72 153 0.0 0.0 0.00 0.00 0.00 97 1014.7
20260901103209 72 153 0.0 0.0 0.00 0.00 0.00 98 1014.7
20260901102704 72 153 0.0 0.0 0.00 0.00 0.00 98 1014.6
20260901102203 72 153 0.0 0.0 0.00 0.00 0.00 98 1014.5
20260901101659 72 153 0.0 0.0 0.00 0.00 0.00 98 1014.5
20260901101158 73 153 0.0 0.0 0.00 0.00 0.00 98 1014.6
20260901100653 72 152 0.0 0.0 0.00 0.00 0.00 98 1014.5
20260901100148 72 153 0.0 0.0 0.00 0.00 0.00 98 1014.5
20260901095646 72 153 0.0 0.0 0.00 0.00 0.00 98 1014.6
20260901095144 72 153 0.0 0.0 0.00 0.00 0.00 98 1014.5
20260901094639 72 153 0.0 0.0 0.00 0.00 0.00 97 1014.6
20260901094138 71 153 0.0 0.0 0.00 0.00 0.00 97 1014.6
20260901093633 71 153 0.0 0.0 0.00 0.00 0.00 97 1014.5
20260901093132 71 153 0.0 0.0 0.00 0.00 0.00 97 1014.7
20260901092628 71 153 0.0 0.0 0.00 0.00 0.00 97 1014.7
20260901092124 71 152 0.0 0.0 0.00 0.00 0.00 97 1014.7
20260901091620 71 153 0.0 0.0 0.00 0.00 0.00 97 1014.9
20260901091115 71 153 0.0 0.0 0.00 0.00 0.00 97 1014.6
20260901090615 71 153 0.0 0.0 0.00 0.00 0.00 97 1014.6
20260901090111 71 153 0.0 0.0 0.00 0.00 0.00 97 1014.5
20260901085607 72 152 0.0 0.0 0.00 0.00 0.00 97 1014.7
20260901085102 71 153 0.0 0.0 0.00 0.00 0.00 97 1014.5
20260901084558 71 152 0.0 0.0 0.00 0.00 0.00 97 1014.6
20260901084055 71 152 0.0 0.0 0.00 0.00 0.00 96 1014.6
20260901083554 71 153 0.0 0.0 0.00 0.00 0.00 96 1014.6
20260901083052 71 153 0.0 0.0 0.00 0.00 0.00 96 1014.6
20260901082547 72 152 0.0 0.0 0.00 0.00 0.00 96 1014.5
20260901082043 72 152 0.0 0.0 0.00 0.00 0.00 96 1014.6
20260901081537 72 152 0.0 0.0 0.00 0.00 0.00 96 1014.4
20260901081032 72 153 0.0 0.0 0.00 0.00 0.00 96 1014.4
20260901080532 72 152 0.0 0.0 0.00 0.00 0.00 96 1014.4
20260901080026 72 153 0.0 0.0 0.00 0.00 0.00 96 1014.7
20260901075522 72 153 0.0 0.0 0.00 0.00 0.00 96 1014.5
20260901075021 72 152 0.0 0.0 0.00 0.00 0.00 96 1014.4
20260901074520 72 153 0.0 0.0 0.00 0.00 0.00 96 1014.4
20260901074016 72 153 0.0 0.0 0.00 0.00 0.00 96 1014.3
20260901073513 72 152 0.0 0.0 0.00 0.00 0.00 96 1014.4
20260901073013 72 153 0.0 0.0 0.00 0.00 0.00 96 1014.5
20260901072507 72 153 0.0 0.0 0.00 0.00 0.00 96 1014.5
20260901071957 72 153 0.0 0.0 0.00 0.00 0.00 96 1014.3
20260901071456 72 153 0.0 0.0 0.00 0.00 0.00 96 1014.2
20260901070955 73 153 0.0 0.0 0.00 0.00 0.00 96 1014.4
20260901070451 73 153 0.0 0.0 0.00 0.00 0.00 96 1014.3
20260901065949 73 153 0.0 0.0 0.00 0.00 0.00 96 1014.5
20260901065445 73 153 0.0 0.0 0.00 0.00 0.00 96 1014.5
20260901064940 73 153 0.0 0.0 0.00 0.00 0.00 95 1014.6
20260901064436 72 153 0.0 0.0 0.00 0.00 0.00 95 1014.5
20260901063933 73 153 0.0 0.0 0.00 0.00 0.00 95 1014.4
20260901063429 73 153 0.0 0.0 0.00 0.00 0.00 95 1014.5
20260901062925 73 153 0.0 0.0 0.00 0.00 0.00 95 1014.4
20260901062421 73 153 0.0 0.0 0.00 0.00 0.00 95 1014.5
20260901061916 73 153 0.0 0.0 0.00 0.00 0.00 95 1014.6
20260901061412 73 153 0.0 0.0 0.00 0.00 0.00 95 1014.4
20260901060907 73 153 0.0 0.0 0.00 0.00 0.00 95 1014.6
20260901060403 73 153 0.0 0.0 0.00 0.00 0.00 95 1014.3
20260901055902 73 152 0.0 0.0 0.00 0.00 0.00 95 1014.3
20260901055358 73 153 0.0 0.0 0.00 0.00 0.00 95 1014.5
20260901054855 73 153 0.0 0.0 0.00 0.00 0.00 94 1014.4
20260901054352 73 153 0.0 0.0 0.00 0.00 0.00 94 1014.5
20260901053847 73 153 0.0 0.0 0.00 0.00 0.00 94 1014.4
20260901053343 73 152 0.0 0.0 0.00 0.00 0.00 94 1014.5
20260901052838 74 152 0.0 0.0 0.00 0.00 0.00 94 1014.6
20260901052333 74 152 0.0 0.0 0.00 0.00 0.00 94 1014.5
20260901051832 74 152 0.0 0.0 0.00 0.00 0.00 94 1014.6
20260901051327 74 152 0.0 0.0 0.00 0.00 0.00 94 1014.4
20260901050822 74 152 0.0 0.0 0.00 0.00 0.00 94 1014.6
20260901050313 74 152 0.0 0.0 0.00 0.00 0.00 94 1014.6
20260901045808 74 152 0.0 0.0 0.00 0.00 0.00 94 1014.5
20260901045307 74 152 0.0 0.0 0.00 0.00 0.00 94 1014.6
20260901044803 74 152 0.0 0.0 0.00 0.00 0.00 94 1014.6
20260901044259 74 152 0.0 0.0 0.00 0.00 0.00 94 1014.5
20260901043754 74 152 0.0 0.0 0.00 0.00 0.00 93 1014.7
20260901043250 74 153 0.0 0.0 0.00 0.00 0.00 93 1014.7
20260901042749 74 153 0.0 0.0 0.00 0.00 0.00 93 1014.6
20260901042244 74 152 0.0 0.0 0.00 0.00 0.00 93 1014.8
20260901041740 74 152 0.0 0.0 0.00 0.00 0.00 93 1014.7
20260901041240 74 152 0.0 0.0 0.00 0.00 0.00 93 1014.8
20260901040735 75 153 0.0 0.0 0.00 0.00 0.00 92 1014.7
20260901040234 75 153 0.0 0.0 0.00 0.00 0.00 92 1014.8
20260901035732 75 153 0.0 0.0 0.00 0.32 0.32 92 1014.7
20260901035226 75 153 0.0 0.0 0.00 0.32 0.32 92 1014.7
20260901034719 75 153 0.0 0.0 0.00 0.32 0.32 92 1014.6
20260901034214 75 153 0.0 0.0 0.00 0.32 0.32 92 1014.7
20260901033714 75 153 0.0 0.0 0.00 0.32 0.32 92 1014.8
20260901033213 75 153 0.0 0.0 0.00 0.32 0.32 91 1014.8
20260901032713 75 153 0.0 0.0 0.00 0.32 0.32 91 1014.9
20260901032212 75 153 0.0 0.0 0.00 0.32 0.32 91 1014.9
20260901031708 76 153 0.0 0.0 0.00 0.32 0.32 90 1014.8
20260901031203 76 153 0.0 0.0 0.00 0.32 0.32 90 1014.7
20260901030658 76 153 0.0 0.0 0.00 0.32 0.32 90 1014.9
20260901030153 76 153 0.0 0.0 0.00 0.32 0.32 90 1014.9
20260901025648 76 153 0.0 0.0 0.00 0.32 0.32 90 1014.8